Location: Breux
(46.3269°N, 3.2993°E)
Time: 02:25:31
(UTC+00:00)

Cosmos 192 - Pass Details

Date: 09 April 2020
Orbit: 701 x 714 km, 74.0° (Epoch: 05 June)

Event Time Altitude Azimuth Distance (km) Brightness Sun altitude
Rises 20:34:33 0° 336° (NNW) 3,118 8.7 -20.7°
Reaches altitude 10° 20:36:53 10° 335° (NNW) 2,196 7.8 -21.0°
Maximum altitude 20:41:50 77° 251° (WSW) 737 4.4 -21.7°
Enters shadow 20:43:21 45° 175° (S) 973 4.7 -21.9°
